[[{"header":{"parameterUnit":"m.s-1","parameterCategory":1,"la1":30.2991,"la2":30.254,"lo1":-89.0895,"lo2":-89.0444,"dy":0.0017,"dx":0.0017,"nx":28,"ny":28,"refTime":"2025-03-20T09:00:00:Z","depth":0,"parameterNumber":2,"parameterNumberName":"U-component_of_WINDS"},"data":[0,0,0,0,0,0,0,0,0,0,0,0,0,0,0,0,0,0,0,0,0,0,0,0,0,0,0,0,0,0,0,0,0,0,0,0,0,0,0,0,0,0,0,0,0,0,0,0,0,0,0,0,0,0,0,0,0,0,1.6986,1.6987,0,1.7052,1.7053,1.7054,1.7016,1.7014,1.7012,1.701,1.708,1.7083,1.7087,0,0,0,0,0,0,0,0,0,0,0,0,0,1.6824,1.6828,1.6986,1.6987,1.6988,1.7052,1.7053,1.7054,1.7016,1.7014,1.7011,1.7009,1.7079,1.7083,1.7087,0,0,0,0,0,0,0,0,0,0,0,0,0,1.6893,1.6829,1.6986,1.6976,1.6976,1.7052,1.7053,1.7054,1.7016,1.7014,1.7011,1.7008,1.7077,1.7082,1.7088,1.7177,0,0,1.7104,1.7107,0,0,0,0,0,0,0,0,1.6889,1.6899,1.6977,1.6977,1.6977,1.7023,1.7022,1.7096,1.7017,1.7001,1.701,1.7007,1.7063,1.707,1.7088,1.7181,1.7184,1.7105,1.7108,1.711,1.7112,0,0,0,0,0,0,0,1.6885,1.6896,1.7012,1.6978,1.6978,1.6968,1.6975,1.7036,1.7047,1.7002,1.7,1.7008,1.7063,1.7083,1.709,1.7185,1.7105,1.7109,1.7113,1.7115,1.7349,1.7352,0,0,0,0,0,0,1.6881,1.6892,1.701,1.7014,1.6925,1.6973,1.6981,1.7011,1.7046,1.7049,1.701,1.7006,1.7075,1.7083,1.7092,1.7196,1.711,1.7115,1.7118,1.7346,1.735,1.7353,0,0,0,0,0,0,1.6877,1.6891,1.7007,1.6953,1.6967,1.6979,1.7013,1.7014,1.7034,1.7052,1.7054,1.7029,1.7073,1.7084,1.7155,1.7198,1.7118,1.7123,1.7343,1.7347,1.7352,1.7407,0,0,0,0,0,0,1.6873,1.689,1.6925,1.6954,1.697,1.707,1.7016,1.7017,1.7043,1.7038,1.7071,1.7073,1.7072,1.7147,1.7161,1.7204,1.7127,1.7339,1.7345,1.735,1.7401,1.7413,1.7423,0,0,0,0,0,1.6867,1.6939,1.6927,1.6942,1.7013,1.7073,1.7082,1.7079,1.7047,1.7081,1.7092,1.7072,1.7191,1.7155,1.717,1.7215,1.7336,1.7343,1.735,1.7397,1.7411,1.7422,0,0,0,0,0,0,1.6917,1.6943,1.693,1.7014,1.7041,1.7066,1.711,1.7094,1.7132,1.7126,1.712,1.7128,1.7201,1.7215,1.7174,1.7302,1.7259,1.7269,1.7289,1.7303,1.7313,1.7308,1.7131,0,0,0,0,0,1.6938,1.6984,1.7004,1.7076,1.709,1.7098,1.7124,1.7118,1.7147,1.7159,1.7175,1.7204,1.7247,1.7276,1.7317,1.7403,1.7408,1.7442,1.7452,1.7461,1.7469,1.7512,1.7527,1.7375,1.7375,1.7375,0,0,1.6981,1.7001,1.7031,1.7087,1.7107,1.7154,1.7108,1.7161,1.7195,1.7167,1.7234,1.7247,1.7278,1.7356,1.7391,1.737,1.7512,1.747,1.7476,1.748,1.7521,1.7535,1.7548,1.738,1.7379,1.7378,0,0,1.7084,1.7105,1.7165,1.7186,1.7217,1.7221,1.7235,1.7262,1.7269,1.7336,1.7314,1.7355,1.7431,1.7453,1.7475,1.7581,1.7563,1.7595,1.765,1.7692,1.7704,1.7715,1.775,1.7764,1.7604,1.7604,1.7604,0,1.7134,1.7204,1.7198,1.7251,1.7275,1.725,1.731,1.7331,1.7374,1.7391,1.7367,1.7458,1.7478,1.7559,1.7585,1.7604,1.7618,1.7591,1.7703,1.7714,1.7723,1.7757,1.7771,1.7607,1.7607,1.7607,1.7606,0,1.7262,1.7311,1.7356,1.7396,1.7426,1.7482,1.7483,1.7514,1.7505,1.7511,1.7578,1.76,1.7643,1.7663,1.7656,1.7742,1.7727,1.7704,1.766,1.7741,1.7773,1.7786,1.7612,1.7611,1.761,1.7609,0,0,1.74,1.7434,1.745,1.7467,1.7498,1.7535,1.7589,1.763,1.7655,1.7685,1.7729,1.7792,1.7769,1.7793,1.7788,1.7825,1.7905,1.7796,1.7797,1.7814,1.7997,1.8014,1.8029,1.7893,1.7895,1.7897,1.7994,0,1.7503,1.7596,1.7591,1.7679,1.7722,1.7697,1.7744,1.7767,1.7774,1.7811,1.7818,1.7861,1.7829,1.7843,1.7878,1.7888,1.7941,1.7881,1.7932,1.7934,1.7924,1.8046,1.8065,1.8155,1.8006,1.8009,1.801,0,1.7635,1.7667,1.7759,1.778,1.7798,1.784,1.7875,1.7912,1.7937,1.7939,1.7964,1.7952,1.8005,1.796,1.8032,1.7991,1.8012,1.8019,1.8023,1.8026,1.7976,1.8051,1.8184,1.8197,1.803,1.8028,1.8027,0,1.7723,1.779,1.7852,1.7867,1.7894,1.7923,1.7936,1.7958,1.7982,1.8014,1.8028,1.8066,1.8086,1.8115,1.8113,1.8081,1.8185,1.8141,1.8187,1.8187,1.8209,1.8208,1.8345,1.8226,1.8225,1.8225,1.8225,0,1.7837,1.7894,1.7891,1.7929,1.7991,1.7983,1.8044,1.8054,1.8073,1.8112,1.8094,1.813,1.8126,1.8163,1.8161,1.8219,1.8229,1.8231,1.823,1.8232,1.8231,1.8245,1.8238,1.8229,1.8228,1.8227,1.8227,0,1.7946,1.7947,1.8012,1.8031,1.8037,1.8081,1.8097,1.8132,1.8136,1.8185,1.8196,1.8202,1.8244,1.8244,1.8293,1.8292,1.8362,1.8355,1.8354,1.8351,1.8396,1.8391,1.8546,1.8564,1.8434,1.8436,1.8437,0,1.8018,1.806,1.8082,1.8106,1.812,1.816,1.8183,1.8176,1.8202,1.8231,1.8263,1.8302,1.8334,1.8401,1.841,1.8446,1.8438,1.849,1.8444,1.8443,1.8436,1.8433,1.8436,1.8499,1.85,1.8501,1.8502,0,1.8144,1.8142,1.8176,1.821,1.8238,1.8265,1.8289,1.831,1.8306,1.8335,1.8376,1.84,1.8448,1.8487,1.8521,1.8534,1.8517,1.8516,1.8528,1.853,1.8527,1.8527,1.8376,1.8513,1.8512,1.8511,1.851,1.851,1.8235,1.827,1.829,1.8328,1.8345,1.8368,1.8401,1.8407,1.8442,1.8479,1.8473,1.8519,1.854,1.8584,1.8599,1.8634,1.8616,1.8635,1.8639,1.8643,1.8646,1.8522,1.8641,1.8641,1.864,1.864,1.864,0,1.8359,1.837,1.8405,1.8438,1.8467,1.8448,1.8473,1.8498,1.8539,1.8559,1.8589,1.8636,1.8672,1.8683,1.8718,1.8744,1.8737,1.8753,1.875,1.8753,1.8662,1.8647,1.8758,1.8758,1.8758,1.8758,1.8758,1.8758,1.8427,1.8484,1.8483,1.8547,1.8558,1.8602,1.8617,1.8637,1.8653,1.8705,1.8735,1.8741,1.8756,1.8792,1.8824,1.8826,1.8839,1.8858,1.8857,1.8772,1.876,1.8748,1.8734,1.8862,1.8862,1.8945,1.8945,1.8946]},{"header":{"parameterUnit":"m.s-1","parameterCategory":1,"la1":30.2991,"la2":30.254,"lo1":-89.0895,"lo2":-89.0444,"dy":0.0017,"dx":0.0017,"nx":28,"ny":28,"refTime":"2025-03-20T09:00:00:Z","depth":0,"parameterNumber":3,"parameterNumberName":"V-component_of_WINDS"},"data":[0,0,0,0,0,0,0,0,0,0,0,0,0,0,0,0,0,0,0,0,0,0,0,0,0,0,0,0,0,0,0,0,0,0,0,0,0,0,0,0,0,0,0,0,0,0,0,0,0,0,0,0,0,0,0,0,0,0,4.9443,4.9444,0,4.9497,4.9498,4.9498,4.9434,4.9432,4.9429,4.9427,4.948,4.9484,4.9487,0,0,0,0,0,0,0,0,0,0,0,0,0,4.9278,4.9282,4.9443,4.9444,4.9444,4.9497,4.9498,4.9499,4.9435,4.9432,4.9429,4.9426,4.9479,4.9483,4.9487,0,0,0,0,0,0,0,0,0,0,0,0,0,4.9343,4.9283,4.9443,4.9419,4.9417,4.9497,4.9498,4.9499,4.9435,4.9432,4.9428,4.9425,4.9477,4.9483,4.9488,4.9593,0,0,4.9505,4.9507,0,0,0,0,0,0,0,0,4.9339,4.9349,4.9422,4.9421,4.9419,4.9455,4.9459,4.953,4.9436,4.9428,4.9427,4.9423,4.9475,4.948,4.9498,4.9596,4.9598,4.9505,4.9509,4.9511,4.9512,0,0,0,0,0,0,0,4.9335,4.9346,4.9464,4.9423,4.9421,4.9404,4.9409,4.9472,4.9471,4.9429,4.9424,4.9432,4.9473,4.9493,4.9499,4.9599,4.9505,4.951,4.9513,4.9515,4.9781,4.9785,0,0,0,0,0,0,4.9334,4.9343,4.9463,4.9466,4.937,4.9409,4.9415,4.9447,4.947,4.947,4.9435,4.9428,4.9485,4.9492,4.95,4.9622,4.9511,4.9516,4.9519,4.9777,4.9782,4.9786,0,0,0,0,0,0,4.9331,4.9345,4.946,4.9403,4.9417,4.9416,4.9452,4.945,4.947,4.9474,4.9473,4.9456,4.9483,4.9493,4.957,4.9623,4.9518,4.9523,4.9773,4.9779,4.9784,4.9867,0,0,0,0,0,0,4.9326,4.9344,4.9386,4.9405,4.942,4.9531,4.9456,4.9454,4.948,4.9472,4.9494,4.9494,4.9481,4.9562,4.9575,4.9628,4.9528,4.9768,4.9775,4.9782,4.986,4.9875,4.9888,0,0,0,0,0,4.9321,4.9408,4.9388,4.9403,4.9472,4.9534,4.9542,4.9527,4.9485,4.9525,4.9527,4.9493,4.9615,4.9571,4.9585,4.964,4.9764,4.9773,4.9781,4.9853,4.9872,4.9888,0,0,0,0,0,0,4.9395,4.941,4.9389,4.9485,4.9509,4.9523,4.9574,4.9548,4.9583,4.9575,4.9552,4.9558,4.9639,4.9648,4.9598,4.9741,4.9683,4.9694,4.9732,4.975,4.9764,4.9759,4.9532,0,0,0,0,0,4.9422,4.9473,4.9483,4.9566,4.9579,4.9575,4.9601,4.9587,4.961,4.962,4.9628,4.9651,4.9694,4.9723,4.9763,4.9861,4.9863,4.9906,4.992,4.9932,4.9942,4.999,5.0008,4.9814,4.9814,4.9814,0,0,4.948,4.9494,4.9527,4.9581,4.9598,4.9649,4.9584,4.9641,4.9677,4.9628,4.9701,4.9708,4.9731,4.9819,4.9857,4.9828,4.9996,4.9943,4.9952,4.9955,5.0001,5.0019,5.0035,4.982,4.9819,4.9818,0,0,4.9609,4.9627,4.9696,4.9714,4.974,4.9736,4.9753,4.9771,4.9774,4.9846,4.9809,4.9852,4.9928,4.9945,4.9964,5.0097,5.0066,5.0111,5.0185,5.0232,5.0247,5.0261,5.0305,5.0321,5.0121,5.0122,5.0122,0,4.9677,4.9753,4.9735,4.9794,4.9817,4.9776,4.9844,4.9862,4.99,4.9916,4.9883,4.9975,4.9989,5.0077,5.0109,5.0127,5.0143,5.0108,5.0247,5.026,5.0272,5.0314,5.0331,5.0127,5.0126,5.0126,5.0125,0,4.9832,4.9886,4.9938,4.9975,5.0005,5.0069,5.0058,5.009,5.0073,5.0071,5.0144,5.0159,5.0199,5.022,5.0204,5.0305,5.0286,5.0251,5.0191,5.0296,5.0335,5.0351,5.0134,5.0132,5.0131,5.0129,0,0,5.0011,5.0035,5.0055,5.0069,5.0094,5.0134,5.0194,5.0234,5.026,5.0287,5.0335,5.0399,5.0366,5.0387,5.0372,5.0415,5.0515,5.0374,5.0374,5.0396,5.0623,5.0647,5.0666,5.0495,5.0498,5.05,5.062,0,5.0137,5.0242,5.0227,5.0327,5.0374,5.0334,5.0385,5.0405,5.0405,5.0443,5.0443,5.0487,5.0442,5.0454,5.0494,5.0494,5.0559,5.0486,5.0536,5.0538,5.0529,5.0687,5.0714,5.0826,5.0635,5.0638,5.064,0,5.03,5.0332,5.0437,5.0451,5.0469,5.0517,5.055,5.0588,5.0608,5.0605,5.0628,5.0605,5.0662,5.0604,5.0681,5.0631,5.0651,5.0654,5.0658,5.066,5.0594,5.069,5.0861,5.0877,5.0664,5.0662,5.066,0,5.0414,5.0484,5.0554,5.0569,5.0588,5.0621,5.0631,5.0648,5.0672,5.0701,5.0715,5.0751,5.077,5.0797,5.0783,5.0742,5.0862,5.0803,5.0858,5.0858,5.0883,5.0881,5.1057,5.0901,5.0901,5.0901,5.0901,0,5.0556,5.0621,5.0606,5.0649,5.0719,5.07,5.077,5.0774,5.0789,5.0831,5.0799,5.0838,5.0819,5.0856,5.0846,5.0909,5.0919,5.0916,5.0912,5.0917,5.0917,5.0928,5.0919,5.0905,5.0904,5.0903,5.0903,0,5.0695,5.0688,5.0762,5.0773,5.0778,5.0829,5.0838,5.0877,5.0874,5.0927,5.0938,5.0933,5.0975,5.0964,5.1011,5.1003,5.1082,5.107,5.1075,5.1071,5.1126,5.112,5.1312,5.1335,5.1168,5.117,5.1171,0,5.0785,5.0833,5.0849,5.0875,5.0887,5.0929,5.0953,5.0935,5.0961,5.0986,5.1022,5.1061,5.1091,5.116,5.116,5.1194,5.118,5.1245,5.1185,5.1188,5.1177,5.1173,5.1176,5.1256,5.1258,5.126,5.1261,0,5.0943,5.0936,5.0972,5.1006,5.1035,5.1061,5.1084,5.1107,5.1091,5.1121,5.1163,5.1187,5.1233,5.1272,5.1303,5.131,5.1282,5.128,5.1294,5.1299,5.1299,5.1296,5.1105,5.1275,5.1274,5.1273,5.1272,5.1272,5.1057,5.1097,5.1114,5.1154,5.1169,5.1191,5.1227,5.1228,5.1263,5.1299,5.1287,5.1335,5.1351,5.139,5.1401,5.1437,5.1412,5.1434,5.1438,5.1443,5.1448,5.1295,5.1443,5.1443,5.1442,5.1442,5.1442,0,5.1211,5.1219,5.1256,5.1288,5.1319,5.1291,5.1314,5.1341,5.1384,5.1402,5.1432,5.1479,5.1515,5.1517,5.1551,5.1579,5.1567,5.1588,5.1584,5.1586,5.147,5.1453,5.1597,5.1597,5.1597,5.1597,5.1597,5.1597,5.1294,5.1358,5.1354,5.1424,5.1432,5.1478,5.1493,5.1512,5.1526,5.158,5.161,5.1611,5.1622,5.1655,5.1687,5.1686,5.1698,5.1724,5.1718,5.161,5.1594,5.158,5.1563,5.1728,5.1728,5.183,5.1831,5.1832]}]]